Stations météo

réclame
Mon MeteoGroup
Ploumanach, France (7117): Température de l'air & dewpoint: 16.01.2020 04:00:00 - 22.01.2020 04:00:00 (CET)Ploumanach, France (7117): Vitesse du vent & gusts: 16.01.2020 04:00:00 - 22.01.2020 04:00:00 (CET)Ploumanach, France (7117): Direction du vent: 16.01.2020 04:00:00 - 22.01.2020 04:00:00 (CET)Ploumanach, France (7117): reduced air pressure: 16.01.2020 04:00:00 - 22.01.2020 04:00:00 (CET)Ploumanach, France (7117): visibility: 16.01.2020 04:00:00 - 22.01.2020 04:00:00 (CET)Ploumanach, France (7117): Quantités de précipitations: 16.01.2020 04:00:00 - 22.01.2020 04:00:00 (CET)
Date & Time tt [°C] td [°C] ff [km/h] ff [knt] fx [km/h] fx [knt] dd ppp [hPa] vv [km] rr [mm]
22.01.2020 04:00:00 6,9 2,8 26 14 38 21 ENE 1037,4 - 0,0
22.01.2020 03:00:00 5,6 2,9 15 8 27 14 E 1037,4 - 0,0
22.01.2020 02:00:00 5,6 2,6 16 9 28 15 E 1037,8 - 0,0
22.01.2020 01:00:00 5,3 2,5 14 8 29 15 E 1038,4 - 0,0
22.01.2020 00:00:00 5,4 2,0 16 9 35 19 E 1038,7 - 0,0
21.01.2020 23:00:00 6,4 2,3 21 11 38 20 E 1038,7 - 0,0
21.01.2020 22:00:00 6,6 2,1 20 11 35 19 E 1038,9 - 0,0
21.01.2020 21:00:00 6,5 2,9 18 10 31 17 E 1039,1 - 0,0
21.01.2020 20:00:00 6,8 3,4 16 8 29 16 ENE 1038,9 - 0,0
21.01.2020 19:00:00 7,0 2,5 18 10 34 18 ENE 1038,8 - 0,0
21.01.2020 18:00:00 6,8 3,0 15 8 34 19 ENE 1038,7 - 0,0
21.01.2020 17:00:00 7,2 3,2 21 11 35 19 E 1038,9 - 0,0
21.01.2020 16:00:00 8,0 4,0 16 9 31 17 ENE 1039,3 25 0,0
21.01.2020 15:00:00 8,5 3,9 14 8 30 16 ENE 1039,8 - 0,0
21.01.2020 14:00:00 8,6 2,6 18 10 30 16 E 1040,3 - 0,0
21.01.2020 13:00:00 9,3 3,1 16 9 32 17 E 1040,8 25 0,0
21.01.2020 12:00:00 9,5 4,7 17 9 31 17 ENE 1041,5 - 0,0
21.01.2020 11:00:00 8,6 5,3 19 11 29 16 ENE 1041,6 - 0,0
21.01.2020 10:00:00 8,4 5,1 17 9 23 13 ENE 1041,4 12 0,0
21.01.2020 09:00:00 7,7 4,1 14 7 20 11 NE 1041,3 - 0,0
21.01.2020 08:00:00 7,2 2,9 8 4 19 10 ENE 1041,1 - 0,0
21.01.2020 07:00:00 7,4 4,0 10 5 19 10 E 1041,3 12 0,0
21.01.2020 06:00:00 7,7 4,6 10 5 21 11 E 1041,6 - 0,0
21.01.2020 05:00:00 7,9 3,9 12 7 24 13 E 1041,9 - 0,0
21.01.2020 04:00:00 7,8 2,0 14 8 23 12 E 1042,1 - 0,0
21.01.2020 03:00:00 7,9 2,8 13 7 26 14 E 1042,7 - 0,0
21.01.2020 02:00:00 8,4 3,2 16 9 33 18 E 1043,3 - 0,0
21.01.2020 01:00:00 8,5 2,5 20 11 36 20 ENE 1044,1 - 0,0
21.01.2020 00:00:00 8,6 3,0 26 14 38 21 ENE 1044,5 - 0,0
20.01.2020 23:00:00 8,5 3,3 27 15 40 21 ENE 1044,8 - 0,0
20.01.2020 22:00:00 8,4 4,8 29 16 38 20 NE 1044,8 - 0,0
20.01.2020 21:00:00 8,5 4,3 29 16 39 21 NE 1045,0 - 0,0
20.01.2020 20:00:00 8,5 3,9 27 14 35 19 NE 1045,5 - 0,0
20.01.2020 19:00:00 8,5 3,9 26 14 35 19 NE 1045,6 - 0,0
20.01.2020 18:00:00 8,0 4,2 21 12 32 17 NE 1045,5 - 0,0
20.01.2020 17:00:00 8,1 3,9 23 12 32 17 ENE 1045,7 - 0,0
20.01.2020 16:00:00 8,2 4,6 17 9 29 16 ENE 1046,1 20 0,0
20.01.2020 15:00:00 8,7 4,5 18 10 34 18 ENE 1046,6 - 0,0
20.01.2020 14:00:00 9,0 4,4 18 10 36 19 ENE 1047,3 - 0,0
20.01.2020 13:00:00 8,7 4,3 18 10 34 18 ENE 1047,8 20 0,0
20.01.2020 12:00:00 8,2 4,4 20 11 36 19 ENE 1048,5 - 0,0
20.01.2020 11:00:00 7,8 4,9 15 8 27 15 E 1048,4 - 0,0
20.01.2020 10:00:00 7,4 4,4 15 8 30 16 E 1048,5 20 0,0
20.01.2020 09:00:00 7,0 4,3 18 10 34 19 E 1048,2 - 0,0
20.01.2020 08:00:00 7,6 3,6 24 13 38 20 ENE 1047,7 - 0,0
20.01.2020 07:00:00 7,7 4,3 21 12 34 19 ENE 1047,4 15 0,0
20.01.2020 06:00:00 7,5 3,9 20 11 36 19 ENE 1047,2 - 0,0
20.01.2020 05:00:00 7,4 3,8 17 9 27 15 ENE 1047,5 - 0,0
20.01.2020 04:00:00 7,4 4,2 17 9 35 19 ENE 1047,5 - 0,0
20.01.2020 03:00:00 6,9 3,7 16 9 32 18 E 1048,1 - 0,0
20.01.2020 02:00:00 7,5 3,4 20 11 39 21 E 1048,0 - 0,0
20.01.2020 01:00:00 7,8 2,9 22 12 41 22 ENE 1048,2 - 0,0
20.01.2020 00:00:00 8,0 2,7 24 13 41 22 ENE 1048,2 - 0,0
19.01.2020 23:00:00 7,9 2,6 23 12 42 23 ENE 1047,7 - 0,0
19.01.2020 22:00:00 7,9 2,6 25 14 47 26 ENE 1047,6 - 0,0
19.01.2020 21:00:00 8,0 3,5 32 17 44 24 NE 1047,6 - 0,0
19.01.2020 20:00:00 7,9 3,7 28 15 40 22 NE 1047,0 - 0,0
19.01.2020 19:00:00 7,8 3,3 26 14 39 21 ENE 1046,6 - 0,0
19.01.2020 18:00:00 7,7 3,0 26 14 37 20 NE 1046,0 - 0,0
19.01.2020 17:00:00 8,0 2,4 21 11 31 17 NE 1045,7 - 0,0
19.01.2020 16:00:00 8,3 2,3 17 9 29 16 ENE 1045,2 20 0,0
19.01.2020 15:00:00 8,7 2,9 14 8 32 17 ENE 1045,0 - 0,0
19.01.2020 14:00:00 8,7 2,9 21 12 36 19 ENE 1044,8 - 0,0
19.01.2020 13:00:00 8,9 3,7 18 10 39 21 ENE 1045,1 20 0,0
19.01.2020 12:00:00 8,2 2,6 25 14 41 22 ENE 1044,5 - 0,0
19.01.2020 11:00:00 7,8 2,3 31 17 44 24 NE 1043,9 - 0,0
19.01.2020 10:00:00 8,1 3,4 31 17 41 22 NE 1043,1 20 0,0
19.01.2020 09:00:00 7,6 3,3 34 18 44 24 NE 1042,1 - 0,0
19.01.2020 08:00:00 7,6 2,3 34 18 45 25 NE 1041,0 - 0,0
19.01.2020 07:00:00 7,9 2,8 33 18 43 23 NE 1040,0 - 0,0
19.01.2020 06:00:00 7,6 2,5 31 17 41 22 NE 1039,2 - 0,0
19.01.2020 05:00:00 7,7 2,2 29 16 43 23 NE 1038,8 - 0,0
19.01.2020 04:00:00 7,7 2,6 29 16 41 22 NE 1038,1 - 0,0
19.01.2020 03:00:00 7,8 2,9 32 17 44 24 NE 1037,5 - 0,0
19.01.2020 02:00:00 7,9 1,7 30 16 45 24 NE 1036,9 - 0,0
19.01.2020 01:00:00 7,7 2,4 28 15 41 22 ENE 1036,2 - 0,0
19.01.2020 00:00:00 7,3 2,0 21 11 37 20 ENE 1035,1 - 0,0
18.01.2020 23:00:00 7,4 3,1 19 10 41 22 ENE 1034,3 - 0,0
18.01.2020 22:00:00 7,5 3,0 23 13 48 26 ENE 1033,8 - 0,0
18.01.2020 21:00:00 7,6 3,8 22 12 46 25 ENE 1032,2 - 0,0
18.01.2020 20:00:00 7,9 3,7 27 15 50 27 ENE 1030,6 - 0,0
18.01.2020 19:00:00 8,1 3,9 40 22 52 28 ENE 1029,5 - 0,0
18.01.2020 18:00:00 8,0 5,5 26 14 46 25 ENE 1028,6 - 0,0
18.01.2020 17:00:00 8,8 5,5 21 12 38 20 ENE 1027,8 - 0,0
18.01.2020 16:00:00 8,8 6,1 18 10 30 16 E 1027,6 20 0,0
18.01.2020 15:00:00 8,8 5,5 15 8 28 15 E 1026,9 - 0,0
18.01.2020 14:00:00 9,2 5,6 11 6 21 11 ENE 1026,4 - 0,0
18.01.2020 13:00:00 8,6 4,6 8 4 13 7 E 1027,3 20 0,0
18.01.2020 12:00:00 8,5 3,5 7 4 14 8 ESE 1027,3 - 0,0
18.01.2020 11:00:00 7,3 3,7 9 5 16 9 SSE 1026,9 - 0,0
18.01.2020 10:00:00 6,0 3,3 13 7 19 11 SSE 1026,6 - 0,0
18.01.2020 09:00:00 5,9 3,1 8 5 16 9 S 1026,1 - 0,0
18.01.2020 08:00:00 5,7 4,0 14 8 21 11 S 1026,2 - 0,0
18.01.2020 07:00:00 6,1 4,7 10 6 16 9 SSW 1026,4 15 0,6
18.01.2020 06:00:00 6,2 4,8 10 5 19 10 S 1026,2 - 0,8
18.01.2020 05:00:00 6,8 5,1 11 6 28 15 WSW 1026,1 - 0,0
18.01.2020 04:00:00 7,6 4,4 12 7 36 20 WSW 1026,0 - 0,0
18.01.2020 03:00:00 7,9 3,5 18 10 42 23 WSW 1025,9 - 0,0
18.01.2020 02:00:00 7,4 4,7 21 11 39 21 W 1025,7 - 0,2
18.01.2020 01:00:00 8,0 4,8 22 12 47 26 WSW 1025,5 - 0,0
18.01.2020 00:00:00 8,3 4,3 29 16 49 27 W 1025,0 - 0,0
17.01.2020 23:00:00 7,8 4,2 27 15 50 27 W 1024,9 - 0,0
17.01.2020 22:00:00 6,6 4,8 29 15 68 37 W 1024,4 - 0,4
17.01.2020 21:00:00 7,5 3,2 37 20 65 35 W 1023,7 - 1,2
17.01.2020 20:00:00 7,9 4,5 22 12 59 32 W 1023,4 - 0,0
17.01.2020 19:00:00 7,4 4,2 32 17 61 33 WSW 1022,5 - 0,2
17.01.2020 18:00:00 6,0 4,6 19 10 43 23 SW 1022,2 - 1,4
17.01.2020 17:00:00 7,0 3,8 23 13 54 29 SW 1021,4 - 0,0
17.01.2020 16:00:00 8,6 3,2 35 19 62 34 WSW 1020,9 20 0,0
17.01.2020 15:00:00 7,3 4,8 27 14 48 26 WSW 1020,4 - 0,4
17.01.2020 14:00:00 8,2 3,0 27 14 55 30 SW 1019,9 - 0,0
17.01.2020 13:00:00 8,5 3,7 29 16 51 28 SW 1019,6 20 0,0
17.01.2020 12:00:00 7,6 3,3 34 18 59 32 WSW 1019,0 - 0,0
17.01.2020 11:00:00 9,0 4,2 32 17 59 32 W 1017,7 - 0,2
17.01.2020 10:00:00 7,1 4,9 34 18 61 33 WSW 1016,8 10 0,6
17.01.2020 09:00:00 8,3 4,3 34 18 68 37 W 1015,6 - 0,0
17.01.2020 08:00:00 8,7 4,3 38 21 72 39 W 1014,3 - 0,0
17.01.2020 07:00:00 9,0 5,7 36 19 69 37 WSW 1012,5 - 0,0
17.01.2020 06:00:00 9,1 5,3 35 19 58 31 SW 1011,3 - 0,0
17.01.2020 05:00:00 8,9 6,0 31 17 58 31 SW 1010,8 - 0,0
17.01.2020 04:00:00 9,0 5,2 30 16 59 32 SW 1010,5 - 0,0
17.01.2020 03:00:00 10,1 7,2 29 16 49 26 SW 1010,6 - 0,0
17.01.2020 02:00:00 10,6 8,0 21 12 41 22 SW 1010,4 - 0,0
17.01.2020 01:00:00 10,2 8,3 11 6 27 14 SSW 1010,6 - 0,0
17.01.2020 00:00:00 10,4 8,8 11 6 20 11 SW 1010,7 - 0,0
16.01.2020 23:00:00 10,4 8,8 6 4 19 11 SSW 1010,7 - 0,0
16.01.2020 22:00:00 10,8 9,6 8 4 22 12 SSW 1010,9 - 0,0
16.01.2020 21:00:00 10,9 9,5 11 6 28 15 SSW 1010,6 - 0,0
16.01.2020 20:00:00 10,9 9,3 18 10 35 19 SSW 1010,5 - 0,0
16.01.2020 19:00:00 11,1 9,5 21 12 55 30 SSW 1010,3 - 0,2
16.01.2020 18:00:00 12,2 11,1 22 12 53 29 SSW 1009,5 - 1,4
16.01.2020 17:00:00 12,7 11,1 28 15 59 32 SSW 1009,0 - 0,8
16.01.2020 16:00:00 13,6 10,8 29 16 80 43 SSW 1008,7 14 0,0
16.01.2020 15:00:00 13,7 11,0 30 16 68 37 SSW 1008,7 - 0,4
16.01.2020 14:00:00 13,9 10,5 38 21 67 36 S 1009,7 - 0,2
16.01.2020 13:00:00 13,3 9,5 25 14 49 26 S 1010,9 6 0,0
16.01.2020 12:00:00 13,2 9,1 27 14 54 29 S 1011,5 - 0,0
16.01.2020 11:00:00 12,0 9,0 21 11 54 29 SSE 1011,7 - 0,0
16.01.2020 10:00:00 11,0 9,1 27 15 58 31 S 1013,1 6 0,6
16.01.2020 09:00:00 10,7 7,8 25 13 49 26 SSE 1013,1 - 0,0
16.01.2020 08:00:00 9,6 6,7 16 9 35 19 SE 1013,7 - 0,0
16.01.2020 07:00:00 8,8 6,6 17 9 40 22 SSE 1014,8 15 0,0
16.01.2020 06:00:00 8,3 6,1 13 7 31 17 SE 1015,9 - 0,0
16.01.2020 05:00:00 7,3 5,6 10 6 25 13 SE 1016,7 - 0,0
16.01.2020 04:00:00 7,1 5,1 12 7 25 14 SSE 1017,8 - 0,0

tt = Température de l'air
td = dewpoint
ff = Vitesse du vent
fx = gusts
dd = Direction du vent
ppp = reduced air pressure
vv = visibility
rr = Quantités de précipitations

stations d'obs. à proximité